星链-31274 (STARLINK-31274 )

导读

STARLINK-31274是美国SpaceX星链星座的一颗卫星,于2024年2月29日发射。星链计划旨在构建全球卫星互联网星座,为全球偏远地区、海洋等网络覆盖薄弱区域提供高速网络服务,该卫星入轨后将助力星链系统进一步扩容,提升星座整体的通信服务覆盖能力与容量。

基本信息
目录编号:
59078
目录名称:
STARLINK-31274
国际标识:
2024-041E
轨道中心:
EARTH
卫星名称:
星链-31274
卫星全名:
星链-31274 (STARLINK-31274 )
卫星状态:
在轨 (已飞行840 天)
发射日期:
2024-02-29 UTC
国别 :
美国 (US)
星等 :
--
轨道信息
数据来源 国际轨道数据 AOE轨道数据
星历时间 2026-06-16T21:46:02+0800
1天前
查看轨道信息
2026-06-17T00:00:00+0800
1天前
查看轨道信息
半长轴 6861.191km 6861.192km
偏心率 0.0001725 0.0001738
轨道倾角 43.004° 43.004°
近地点辐角 276.662° 260.197°
升交点赤经 112.334° 111.809°
平近点角 83.403° 252.063°
近地点 481.87km 481.862km
远地点 484.238km 484.248km
周期 94.267分钟 94.267分钟
每日圈数 15.275785 15.275781
详细信息
固有亮度:
5
最大亮度:
0.3
卫星平台:
Starlink v2.0 mini
覆盖范围:
全球
运营商:
太空探索技术公司
运营商所在国:
美国
制造商(研发单位):
太空探索技术公司
制造商所在国:
美国
使用方式:
暂无
卫星简介
星链(Starlink)计划是由太空探索技术公司(SpaceX)提出的一个巨型低轨卫星互联网星座项目,计划在2019年至2024年间在太空搭建由约1.2万颗卫星组成的“星链”网络,其中1584颗将部署在地球上空550千米处的近地轨道,并从2020年开始工作。该卫星仍在工作。
2D轨道图
3D轨道图
轨道高度分析图
轨道倾角分析图
轨道综合分析图
查看轨道综合分析图